Hourly Weather Alimtau

Today, 17 May, Monday

Time Temperature Precipitation Wind Pressure Humidity
00:00 +19°C° 0 mm 2 mps 722 mmHg 44%
01:00 +19°C° 0 mm 2 mps 722 mmHg 43%
02:00 +18°C° 0 mm 2 mps 722 mmHg 42%
03:00 +18°C° 0 mm 2 mps 722 mmHg 42%
04:00 +18°C° 0 mm 2 mps 722 mmHg 42%
05:00 +17°C° 0 mm 2 mps 722 mmHg 42%
06:00 +20°C° 0 mm 2 mps 723 mmHg 38%
07:00 +23°C° 0 mm 2 mps 724 mmHg 35%
08:00 +26°C° 0 mm 1 mps 724 mmHg 31%
09:00 +28°C° 0 mm 1 mps 724 mmHg 27%
10:00 +30°C° 0 mm 1 mps 724 mmHg 22%
11:00 +31°C° 0 mm 1 mps 724 mmHg 18%
12:00 +32°C° 0 mm 1 mps 724 mmHg 16%
13:00 +33°C° 0 mm 1 mps 724 mmHg 15%
14:00 +34°C° 0 mm 1 mps 724 mmHg 14%
15:00 +34°C° 0 mm 2 mps 723 mmHg 15%
16:00 +34°C° 0 mm 2 mps 723 mmHg 16%
17:00 +34°C° 0 mm 3 mps 723 mmHg 17%
18:00 +30°C° 0 mm 3 mps 723 mmHg 26%
19:00 +27°C° 0 mm 3 mps 722 mmHg 35%
20:00 +23°C° 0 mm 4 mps 722 mmHg 45%
21:00 +24°C° 0 mm 3 mps 722 mmHg 42%
22:00 +22°C° 0 mm 3 mps 722 mmHg 39%
23:00 +23°C° 0 mm 2 mps 722 mmHg 36%

Tomorrow, 18 May, Tuesday

Time Temperature Precipitation Wind Pressure Humidity
00:00 +21°C° 0 mm 2 mps 722 mmHg 36%
01:00 +21°C° 0 mm 2 mps 721 mmHg 35%
02:00 +20°C° 0 mm 2 mps 721 mmHg 34%
03:00 +20°C° 0 mm 2 mps 721 mmHg 33%
04:00 +20°C° 0 mm 2 mps 721 mmHg 32%
05:00 +20°C° 0 mm 2 mps 721 mmHg 30%
06:00 +23°C° 0 mm 1 mps 721 mmHg 28%
07:00 +25°C° 0 mm 1 mps 722 mmHg 26%
08:00 +28°C° 0 mm 1 mps 722 mmHg 25%
09:00 +29°C° 0 mm 1 mps 722 mmHg 22%
10:00 +31°C° 0 mm 2 mps 722 mmHg 20%
11:00 +34°C° 0 mm 2 mps 722 mmHg 18%
12:00 +34°C° 0 mm 2 mps 722 mmHg 16%
13:00 +35°C° 0 mm 2 mps 721 mmHg 15%
14:00 +36°C° 0 mm 2 mps 721 mmHg 13%
15:00 +35°C° 0 mm 1 mps 721 mmHg 13%
16:00 +35°C° 0 mm 1 mps 721 mmHg 13%
17:00 +34°C° 0 mm 1 mps 720 mmHg 13%
18:00 +32°C° 0 mm 2 mps 720 mmHg 17%
19:00 +29°C° 0 mm 2 mps 720 mmHg 21%
20:00 +27°C° 0 mm 2 mps 720 mmHg 25%
21:00 +26°C° 0 mm 2 mps 720 mmHg 25%
22:00 +25°C° 0 mm 2 mps 720 mmHg 26%
23:00 +24°C° 0 mm 2 mps 720 mmHg 27%

Day after tomorrow, 19 May, Wednesday

Time Temperature Precipitation Wind Pressure Humidity
00:00 +23°C° 0 mm 2 mps 719 mmHg 28%
01:00 +22°C° 0 mm 3 mps 719 mmHg 30%
02:00 +21°C° 0 mm 3 mps 719 mmHg 31%
03:00 +21°C° 0 mm 3 mps 719 mmHg 30%
04:00 +21°C° 0 mm 2 mps 718 mmHg 29%
05:00 +21°C° 0 mm 2 mps 718 mmHg 29%
06:00 +24°C° 0 mm 2 mps 719 mmHg 28%
07:00 +26°C° 0 mm 3 mps 719 mmHg 27%
08:00 +28°C° 0 mm 3 mps 719 mmHg 26%
09:00 +30°C° 0 mm 3 mps 719 mmHg 23%
10:00 +31°C° 0 mm 3 mps 719 mmHg 20%
11:00 +34°C° 0 mm 3 mps 719 mmHg 18%
12:00 +35°C° 0 mm 3 mps 719 mmHg 16%
13:00 +36°C° 0 mm 3 mps 719 mmHg 14%
14:00 +37°C° 0 mm 3 mps 719 mmHg 12%
15:00 +36°C° 0 mm 4 mps 719 mmHg 12%
16:00 +36°C° 0 mm 4 mps 719 mmHg 13%
17:00 +36°C° 0 mm 4 mps 719 mmHg 13%
18:00 +33°C° 0 mm 3 mps 718 mmHg 15%
19:00 +30°C° 0 mm 2 mps 718 mmHg 17%
20:00 +27°C° 0 mm 1 mps 718 mmHg 20%
21:00 +26°C° 0 mm 1 mps 718 mmHg 20%
22:00 +25°C° 0 mm 2 mps 719 mmHg 21%
23:00 +24°C° 0 mm 2 mps 719 mmHg 22%

20 May, Thursday

Time Temperature Precipitation Wind Pressure Humidity
00:00 +24°C° 0 mm 2 mps 719 mmHg 22%
01:00 +23°C° 0 mm 2 mps 719 mmHg 23%
02:00 +23°C° 0 mm 2 mps 719 mmHg 24%
03:00 +23°C° 0 mm 2 mps 719 mmHg 24%
04:00 +21°C° 0 mm 2 mps 719 mmHg 23%
05:00 +21°C° 0 mm 2 mps 719 mmHg 23%
06:00 +24°C° 0 mm 2 mps 719 mmHg 23%
07:00 +27°C° 0 mm 1 mps 720 mmHg 22%
08:00 +29°C° 0 mm 1 mps 720 mmHg 21%
09:00 +30°C° 0 mm 1 mps 721 mmHg 19%
10:00 +32°C° 0 mm 1 mps 721 mmHg 17%
11:00 +34°C° 0 mm 1 mps 721 mmHg 15%
12:00 +35°C° 0 mm 2 mps 721 mmHg 14%
13:00 +36°C° 0 mm 2 mps 721 mmHg 14%
14:00 +36°C° 0 mm 2 mps 721 mmHg 13%
15:00 +36°C° 0 mm 3 mps 721 mmHg 14%
16:00 +35°C° 0 mm 4 mps 721 mmHg 15%
17:00 +35°C° 0 mm 4 mps 721 mmHg 17%
18:00 +33°C° 0 mm 4 mps 721 mmHg 20%
19:00 +30°C° 0 mm 3 mps 721 mmHg 23%
20:00 +28°C° 0 mm 2 mps 721 mmHg 26%
21:00 +27°C° 0 mm 2 mps 721 mmHg 27%
22:00 +26°C° 0 mm 2 mps 721 mmHg 28%
23:00 +25°C° 0 mm 1 mps 721 mmHg 30%

21 May, Friday

Time Temperature Precipitation Wind Pressure Humidity
00:00 +24°C° 0 mm 2 mps 721 mmHg 30%
01:00 +24°C° 0 mm 2 mps 721 mmHg 31%
02:00 +23°C° 0 mm 2 mps 721 mmHg 31%
03:00 +23°C° 0 mm 2 mps 721 mmHg 32%
04:00 +21°C° 0 mm 2 mps 721 mmHg 32%
05:00 +21°C° 0 mm 2 mps 721 mmHg 33%
06:00 +24°C° 0 mm 2 mps 721 mmHg 32%
07:00 +26°C° 0 mm 1 mps 722 mmHg 30%
08:00 +27°C° 0 mm 1 mps 722 mmHg 28%
09:00 +29°C° 0 mm 1 mps 723 mmHg 26%
10:00 +31°C° 0 mm 1 mps 723 mmHg 24%
11:00 +32°C° 0 mm 1 mps 723 mmHg 21%
12:00 +33°C° 0 mm 1 mps 722 mmHg 20%
13:00 +35°C° 0 mm 2 mps 722 mmHg 19%
14:00 +35°C° 0 mm 3 mps 722 mmHg 18%
15:00 +35°C° 0 mm 4 mps 722 mmHg 19%
16:00 +35°C° 0 mm 4 mps 722 mmHg 21%
17:00 +35°C° 0 mm 5 mps 722 mmHg 22%
18:00 +32°C° 0 mm 5 mps 722 mmHg 28%
19:00 +29°C° 0 mm 4 mps 722 mmHg 35%
20:00 +26°C° 0 mm 4 mps 722 mmHg 41%
21:00 +25°C° 0 mm 3 mps 722 mmHg 42%
22:00 +24°C° 0 mm 2 mps 722 mmHg 44%
23:00 +23°C° 0 mm 1 mps 722 mmHg 45%

22 May, Saturday

Time Temperature Precipitation Wind Pressure Humidity
00:00 +23°C° 0 mm 1 mps 722 mmHg 45%
01:00 +22°C° 0 mm 1 mps 722 mmHg 45%
02:00 +21°C° 0 mm 2 mps 722 mmHg 45%
03:00 +20°C° 0.1 mm 2 mps 722 mmHg 47%
04:00 +20°C° 0.1 mm 2 mps 722 mmHg 49%
05:00 +19°C° 0.1 mm 2 mps 722 mmHg 50%
06:00 +21°C° 0 mm 2 mps 722 mmHg 47%
07:00 +24°C° 0 mm 2 mps 723 mmHg 44%
08:00 +25°C° 0 mm 2 mps 723 mmHg 41%
09:00 +27°C° 0 mm 2 mps 723 mmHg 39%
10:00 +28°C° 0 mm 2 mps 723 mmHg 36%
11:00 +29°C° 0 mm 2 mps 723 mmHg 34%
12:00 +30°C° 0 mm 2 mps 723 mmHg 31%
13:00 +31°C° 0 mm 2 mps 723 mmHg 28%
14:00 +32°C° 0 mm 2 mps 722 mmHg 25%
15:00 +33°C° 0 mm 3 mps 722 mmHg 25%
16:00 +33°C° 0 mm 4 mps 722 mmHg 24%
17:00 +33°C° 0 mm 4 mps 722 mmHg 23%
18:00 +29°C° 0.1 mm 4 mps 722 mmHg 34%
19:00 +25°C° 0.1 mm 4 mps 722 mmHg 45%
20:00 +21°C° 0.1 mm 4 mps 722 mmHg 55%
21:00 +21°C° 0 mm 4 mps 722 mmHg 59%
22:00 +20°C° 0 mm 4 mps 722 mmHg 62%
23:00 +20°C° 0 mm 3 mps 722 mmHg 65%
Show more